Cambridge, MD

11:31 AM EDT on June 25, 2017 (GMT -0400)
Cambridge-Dorchester

Weather History for KCGE - August, 2013

Change the Weather History Date:

Sunday, August 4, 2013

  Actual Average (KESN) Record (KESN)
Temperature  
Mean Temperature 71 °F -  
Max Temperature 80 °F 87 °F 95 °F (1963)
Min Temperature 62 °F 67 °F 55 °F (1966)
Cooling Degree Days 6    
Growing Degree Days 21 (Base 50)    
Moisture  
Dew Point 61 °F    
Average Humidity 69    
Maximum Humidity 94    
Minimum Humidity 42    
Precipitation  
Precipitation 0.00 in - - ()
Sea Level Pressure  
Sea Level Pressure 29.93 in    
Wind  
Wind Speed 5 mph (NNW)    
Max Wind Speed 15 mph    
Max Gust Speed 21 mph    
Visibility 9 miles    
Events      
Averages and records for this station are not official NWS values.
T = Trace of Precipitation, MM = Missing Value Source: NWS Daily Summary

Daily Weather History Graph

Daily Weather History Graph

Search for Another Location

Airport or City:

Trip Planner

Search our weather history database for the weather conditions in past years. The results will help you decide how hot, cold, wet, or windy it might be!

Date:

Astronomy

Aug. 04, 2013 Rise Set
Actual Time 6:08 AM EDT 8:11 PM EDT
Civil Twilight 5:39 AM EDT 8:40 PM EDT
Nautical Twilight 5:03 AM EDT 9:15 PM EDT
Astronomical Twilight 4:25 AM EDT 9:54 PM EDT
Moon 4:07 AM EDT (8/4) 6:32 PM EDT (8/4)
Length of Visible Light 15h 00m
Length of Day
14h 02m
Waning Crescent, 5% of the Moon is Illuminated
Aug 4
Waning Crescent
Aug 6
New
Aug 14
First Quarter
Aug 20
Full
Aug 28
Last Quarter

Hourly Weather History & Observations

Time (EDT) Temp. Heat Index Dew Point Humidity Pressure Visibility Wind Dir Wind Speed Gust Speed Precip Events Conditions
12:18 AM 69.8 °F - 68.0 °F 94% 29.92 in 7.0 mi Calm Calm - N/A   Mostly Cloudy
12:38 AM 69.8 °F - 68.0 °F 94% 29.91 in 7.0 mi Calm Calm - N/A   Mostly Cloudy
12:58 AM 69.8 °F - 68.0 °F 94% 29.91 in 4.0 mi SSE 3.5 mph - N/A   Mostly Cloudy
1:18 AM 69.8 °F - 68.0 °F 94% 29.91 in 5.0 mi Calm Calm - N/A   Mostly Cloudy
1:38 AM 69.8 °F - 68.0 °F 94% 29.91 in 5.0 mi Calm Calm - N/A   Mostly Cloudy
1:58 AM 69.8 °F - 68.0 °F 94% 29.91 in 4.0 mi Calm Calm - N/A   Overcast
2:18 AM 69.8 °F - 68.0 °F 94% 29.91 in 4.0 mi Calm Calm - N/A   Overcast
2:38 AM 69.8 °F - 68.0 °F 94% 29.90 in 5.0 mi West 3.5 mph - N/A   Overcast
2:58 AM 69.8 °F - 68.0 °F 94% 29.90 in 7.0 mi Calm Calm - N/A   Overcast
3:18 AM 69.8 °F - 68.0 °F 94% 29.90 in 5.0 mi Calm Calm - N/A   Overcast
3:38 AM 69.8 °F - 68.0 °F 94% 29.89 in 1.2 mi WSW 4.6 mph - N/A   Overcast
3:58 AM 69.8 °F - 68.0 °F 94% 29.90 in 5.0 mi West 4.6 mph - N/A   Mostly Cloudy
4:19 AM 69.8 °F - 68.0 °F 94% 29.89 in 10.0 mi West 3.5 mph - N/A   Mostly Cloudy
4:39 AM 69.8 °F - 68.0 °F 94% 29.89 in 7.0 mi WSW 3.5 mph - N/A   Scattered Clouds
4:59 AM 69.8 °F - 68.0 °F 94% 29.89 in 7.0 mi WSW 3.5 mph - N/A   Mostly Cloudy
5:19 AM 69.8 °F - 68.0 °F 94% 29.89 in 4.0 mi Calm Calm - N/A   Scattered Clouds
5:39 AM 68.0 °F - 66.2 °F 94% 29.89 in 1.8 mi Calm Calm - N/A   Unknown
5:59 AM 68.0 °F - 66.2 °F 94% 29.89 in 0.8 mi Calm Calm - N/A   Unknown
6:19 AM 68.0 °F - 66.2 °F 94% 29.89 in 10.0 mi North 5.8 mph - N/A   Clear
6:39 AM 69.8 °F - 68.0 °F 94% 29.90 in 10.0 mi NW 5.8 mph - N/A   Clear
6:59 AM 69.8 °F - 66.2 °F 88% 29.91 in 10.0 mi NW 6.9 mph - N/A   Clear
7:19 AM 69.8 °F - 64.4 °F 83% 29.92 in 10.0 mi NW 4.6 mph - N/A   Clear
7:39 AM 69.8 °F - 64.4 °F 83% 29.92 in 10.0 mi NNW 6.9 mph - N/A   Clear
7:59 AM 71.6 °F - 64.4 °F 78% 29.92 in 10.0 mi NNW 10.4 mph 16.1 mph N/A   Clear
8:19 AM 71.6 °F - 60.8 °F 69% 29.92 in 10.0 mi NNW 11.5 mph - N/A   Clear
8:39 AM 73.4 °F - 62.6 °F 69% 29.93 in 10.0 mi North 10.4 mph - N/A   Clear
9:19 AM 73.4 °F - 59.0 °F 61% 29.93 in 10.0 mi North 12.7 mph - N/A   Scattered Clouds
9:39 AM 75.2 °F - 60.8 °F 61% 29.93 in 10.0 mi North 12.7 mph 17.3 mph N/A   Clear
9:59 AM 75.2 °F - 59.0 °F 57% 29.94 in 10.0 mi NNW 11.5 mph 16.1 mph N/A   Clear
10:19 AM 75.2 °F - 59.0 °F 57% 29.94 in 10.0 mi NNW 11.5 mph - N/A   Clear
10:39 AM 75.2 °F - 59.0 °F 57% 29.94 in 10.0 mi NNW 10.4 mph - N/A   Clear
10:59 AM 75.2 °F - 57.2 °F 53% 29.94 in 10.0 mi North 8.1 mph - N/A   Clear
11:19 AM 75.2 °F - 59.0 °F 57% 29.94 in 10.0 mi NNW 8.1 mph - N/A   Clear
11:39 AM 77.0 °F - 59.0 °F 54% 29.95 in 10.0 mi NW 11.5 mph - N/A   Clear
11:59 AM 77.0 °F - 57.2 °F 50% 29.95 in 10.0 mi NW 9.2 mph 17.3 mph N/A   Clear
12:19 PM 77.0 °F - 57.2 °F 50% 29.95 in 10.0 mi NW 13.8 mph 20.7 mph N/A   Clear
12:39 PM 78.8 °F - 59.0 °F 51% 29.95 in 10.0 mi NW 13.8 mph 17.3 mph N/A   Clear
1:00 PM 78.8 °F - 55.4 °F 44% 29.94 in 10.0 mi NW 11.5 mph 18.4 mph N/A   Clear
1:20 PM 78.8 °F - 53.6 °F 42% 29.94 in 10.0 mi NW 11.5 mph 18.4 mph N/A   Clear
1:40 PM 78.8 °F - 53.6 °F 42% 29.95 in 10.0 mi NW 15.0 mph 20.7 mph N/A   Clear
2:00 PM 78.8 °F - 53.6 °F 42% 29.94 in 10.0 mi North 15.0 mph 20.7 mph N/A   Clear
2:20 PM 78.8 °F - 55.4 °F 44% 29.94 in 10.0 mi North 9.2 mph - N/A   Clear
2:40 PM 78.8 °F - 55.4 °F 44% 29.94 in 10.0 mi NW 9.2 mph - N/A   Clear
3:00 PM 78.8 °F - 55.4 °F 44% 29.94 in 10.0 mi NNW 9.2 mph - N/A   Clear
3:20 PM 78.8 °F - 55.4 °F 44% 29.93 in 10.0 mi NNW 8.1 mph - N/A   Clear
3:40 PM 78.8 °F - 55.4 °F 44% 29.92 in 10.0 mi North 8.1 mph - N/A   Clear
4:00 PM 78.8 °F - 55.4 °F 44% 29.92 in 10.0 mi NNW 5.8 mph - N/A   Clear
4:20 PM 78.8 °F - 55.4 °F 44% 29.92 in 10.0 mi NNW 8.1 mph - N/A   Scattered Clouds
4:40 PM 78.8 °F - 55.4 °F 44% 29.93 in 10.0 mi NNW 8.1 mph - N/A   Clear
5:00 PM 78.8 °F - 57.2 °F 47% 29.92 in 10.0 mi NNW 8.1 mph - N/A   Clear
5:20 PM 78.8 °F - 57.2 °F 47% 29.93 in 10.0 mi NNW 9.2 mph - N/A   Mostly Cloudy
5:40 PM 78.8 °F - 55.4 °F 44% 29.93 in 10.0 mi NNW 10.4 mph - N/A   Scattered Clouds
6:00 PM 80.6 °F 80.5 °F 55.4 °F 42% 29.93 in 10.0 mi North 9.2 mph - N/A   Clear
6:20 PM 78.8 °F - 55.4 °F 44% 29.94 in 10.0 mi North 8.1 mph - N/A   Scattered Clouds
6:40 PM 78.8 °F - 53.6 °F 42% 29.94 in 10.0 mi North 9.2 mph - N/A   Clear
7:00 PM 78.8 °F - 55.4 °F 44% 29.94 in 10.0 mi North 10.4 mph - N/A   Clear
7:20 PM 78.8 °F - 55.4 °F 44% 29.95 in 10.0 mi North 6.9 mph - N/A   Clear
7:40 PM 77.0 °F - 55.4 °F 47% 29.96 in 10.0 mi North 5.8 mph - N/A   Clear
8:00 PM 75.2 °F - 55.4 °F 50% 29.97 in 10.0 mi North 4.6 mph - N/A   Clear
8:20 PM 75.2 °F - 57.2 °F 53% 29.97 in 10.0 mi North 3.5 mph - N/A   Clear
9:00 PM 69.8 °F - 60.8 °F 73% 29.98 in 10.0 mi Calm Calm - N/A   Clear
9:20 PM 68.0 °F - 60.8 °F 78% 29.99 in 10.0 mi Calm Calm - N/A   Clear
9:40 PM 64.4 °F - 59.0 °F 83% 29.99 in 10.0 mi Calm Calm - N/A   Clear
10:01 PM 64.4 °F - 59.0 °F 83% 29.99 in 10.0 mi Calm Calm - N/A   Clear
10:21 PM 64.4 °F - 59.0 °F 83% 29.99 in 10.0 mi Calm Calm - N/A   Clear
10:41 PM 64.4 °F - 59.0 °F 83% 29.99 in 10.0 mi Calm Calm - N/A   Clear
11:01 PM 62.6 °F - 59.0 °F 88% 30.00 in 10.0 mi Calm Calm - N/A   Clear
11:21 PM 62.6 °F - 59.0 °F 88% 30.01 in 10.0 mi Calm Calm - N/A   Clear
11:41 PM 62.6 °F - 59.0 °F 88% 30.01 in 10.0 mi Calm Calm - N/A   Clear